Location: The Stocker AstroScience Center
(25.7579°N, 80.3725°W)
Time: 16:48:21
(UTC-04:00)

ISS - All Passes

Search period start: 29 March 2015 00:00
Search period end: 08 April 2015 00:00
Orbit: 396 x 406 km, 51.6° (Epoch: 29 March)

Date Brightness Start Highest point End Pass type
(mag) Time Alt. Az. Time Alt. Az. Time Alt. Az.
29 Mar - 06:30:47 10° N 06:32:41 15° NE 06:34:39 10° ENE visible
29 Mar - 08:06:19 10° WNW 08:09:07 28° SW 08:11:54 10° S daylight
29 Mar - 21:27:24 10° S 21:29:42 18° SE 21:32:05 10° E night (unlit)
29 Mar - 23:03:25 10° W 23:06:01 21° NW 23:08:34 10° N night (unlit)
30 Mar - 07:12:36 10° NW 07:15:49 77° SW 07:19:01 10° SE daylight
30 Mar - 22:09:21 10° SW 22:12:31 50° NW 22:15:41 10° NNE night (unlit)
31 Mar - 06:19:22 10° NNW 06:22:25 38° NE 06:25:26 10° ESE visible
31 Mar - 21:15:55 10° SSW 21:19:06 58° SE 21:22:19 10° NE visible
01 Apr - 05:26:38 10° N 05:28:51 17° NE 05:31:08 10° E visible
01 Apr - 07:02:36 10° WNW 07:05:13 23° SW 07:07:47 10° S daylight
01 Apr - 20:23:09 10° S 20:25:44 22° SE 20:28:23 10° ENE visible
01 Apr - 21:59:43 10° W 22:02:06 18° NW 22:04:26 10° N visible
02 Apr - 06:08:40 10° NW 06:11:50 61° SW 06:15:00 10° SSE visible
02 Apr - 21:05:24 10° WSW 21:08:30 40° NW 21:11:35 10° NNE visible
03 Apr - 05:15:15 10° NNW 05:18:22 47° NE 05:21:29 10° ESE visible
03 Apr - 20:11:45 10° SW 20:15:00 74° SE 20:18:15 10° NE visible
04 Apr - 04:22:17 10° N 04:24:45 20° NE 04:27:16 10° E night (unlit)
04 Apr - 05:58:41 10° W 06:01:04 19° SW 06:03:22 10° S visible
04 Apr - 19:18:44 10° S 19:21:32 27° SE 19:24:22 10° ENE daylight
04 Apr - 20:55:50 10° W 20:57:57 16° NW 21:00:00 10° N visible
05 Apr - 03:30:44 10° NNE 03:30:59 10° NE 03:31:21 10° NE night (unlit)
05 Apr - 05:04:29 10° NW 05:07:37 48° SW 05:10:42 10° SSE night (unlit)
05 Apr - 18:27:05 10° SE 18:28:04 11° SE 18:29:12 10° ESE daylight
05 Apr - 20:01:14 10° WSW 20:04:14 33° NW 20:07:14 10° NNE visible
06 Apr - 04:10:54 10° NNW 04:14:04 59° NE 04:17:15 10° SE night (unlit)
06 Apr - 19:07:22 10° SW 19:10:38 89° NW 19:13:54 10° NE daylight
07 Apr - 03:17:44 10° NNW 03:20:24 24° NE 03:23:06 10° E night (unlit)
07 Apr - 04:54:35 10° W 04:56:39 16° SW 04:58:38 10° SSW night (unlit)
07 Apr - 18:14:08 10° SSW 18:17:04 32° SE 18:20:03 10° ENE daylight
07 Apr - 19:51:45 10° WNW 19:53:34 14° NW 19:55:16 10° N daylight
